Hourly Data Report for August 21, 2002

SHERBROOKE A
QUEBEC

45°26'00.000" N
71°41'00.000" W
241.40 m
7028124
71610
YSC

Download Data

Hourly Data (August 2002)
Hourly Data Report for August 21, 2002
TIME
LST
Temp Definition
°C
Dew Point Definition
°C
Rel Hum Definition
%
Precip. Amount Definition
mm

Wind Dir Definition
10's deg

Wind Spd Definition
km/h
Visibility Definition
km
Stn Press Definition
kPa
Hmdx Definition


Wind Chill Definition


Weather Definition


00:00 8.7 8.1 96     0 15.0 99.37      
01:00 8.3 8.1 99   9 4 12.9 99.40      
02:00 7.4 6.8 96     0 4.8 99.45      
03:00 6.6 6.3 98     0 2.4 99.50      
04:00 5.7 5.0 95     0 15.0 99.60      
05:00 5.7 5.0 95   9 4 15.0 99.67      
06:00 9.6 8.9 95     0 15.0 99.71      
07:00 12.9 11.0 88   9 4 24.1 99.72     Clear
08:00 16.1 12.6 80     0 24.1 99.73     Clear
09:00 19.1 12.0 63   17 4 24.1 99.72     Mainly Clear
10:00 21.7 12.4 55   23 6 24.1 99.72     Mainly Clear
11:00 23.1 10.4 45     0 24.1 99.67 25   Mainly Clear
12:00 23.7 10.2 42   18 6 24.1 99.65 25   Mainly Clear
13:00 25.4 11.8 43   20 9 24.1 99.61 28   Mainly Clear
14:00 24.7 10.9 42   13 6 24.1 99.52 26   Mainly Clear
15:00 24.4 11.2 44   16 7 24.1 99.49 26   Mostly Cloudy
16:00 24.0 11.0 44   22 7 24.1 99.43 26   Mostly Cloudy
17:00 23.1 11.5 48   20 6 15.0 99.41 25    
18:00 20.6 14.0 66   18 4 15.0 99.38      
19:00 17.0 13.1 78   33 4 15.0 99.34      
20:00 14.3 12.4 88     0 15.0 99.39      
21:00 13.6 12.3 92   11 7 15.0 99.41      
22:00 11.9 10.9 94   11 6 15.0 99.37      
23:00 12.4 11.4 94   8 6 15.0 99.36      

Notes on Data Quality.

Legend

  • E = Estimated
  • M = Missing
  • NA = Not Available*
  • [empty] = Indicates an unobserved value
Date modified: